Regional Weather Roundup
Issued by NWS

Home | Current Version | Previous Version | Graphics & Text | Print | Product List | Glossary On
Versions: 1 2 3 4 5 6 7 8 9 10 11 12 13 14 15 16 17 18 19 20 21 22 23 24 25 26 27 28 29 30 31 32 33 34 35 36 37 38 39 40 41 42 43 44 45 46 47 48 49 50
000
ASUS43 KIND 251809
RWRIN

WEATHER ROUNDUP FOR INDIANA
NATIONAL WEATHER SERVICE INDIANAPOLIS IN
200 PM EDT SAT APR 25 2015

NOTE: "FAIR" INDICATES FEW OR NO CLOUDS BELOW 12,000 FEET WITH NO
SIGNIFICANT WEATHER AND/OR OBSTRUCTIONS TO VISIBILITY.

* - STATION DOES NOT REPORT WEATHER SUCH AS PRECIPITATION OR FOG.

+ - STATION NOT QUALITY CONTROLLED BY THE NATIONAL WEATHER SERVICE.
    USE DATA WITH CAUTION...ESPECIALLY DEWPOINT AND RELATIVE
    HUMIDITY OBSERVATIONS.

INZ001>003-010>013-019-020-251900-
NORTHWEST INDIANA

CITY           SKY/WX    TMP DP  RH WIND       PRES   REMARKS
GARY /AIRPORT/ LGT RAIN  46  39  76 E113      29.79R
KNOX *+        CLOUDY    43  37  81 E13       29.73F
LA PORTE +     RAIN      46  43  91 E13       29.76F
6HR MIN TEMP:  43; 6HR MAX TEMP:  46; 6HR PCP:  0.30;

MICHIGAN CITY+ LGT RAIN  45  37  76 E5        29.77F
MONTICELLO +   RAIN      43  42  97 E8G17     29.70F
6HR MIN TEMP:  42; 6HR MAX TEMP:  44; 6HR PCP:  0.44;

VALPARAISO     RAIN      44  42  93 E6        29.78R FOG
6HR MIN TEMP:  41; 6HR MAX TEMP:  45; 6HR PCP:  0.37;


$$

LMZ046-743>745-251900-
SOUTHERN LAKE MICHIGAN

STATION/POSITION TIME  TEMP    WIND        PRES    WAVE
                       AIR SEA DIR/SP/G            HT
                 (UTC) (F)     (DEG/KT/KT) (MB)    (FT)
BURNS HARBOR     1800   45      90/  6/ 10 1008.8S
MICHIGAN CITY    1800   45      80/ 10/ 14   N/A
5NW MICH CITY    1800   45 45  120/ 14/ 17   N/A     2

$$

INZ004-005-014>016-021>024-251900-
NORTH CENTRAL INDIANA

CITY           SKY/WX    TMP DP  RH WIND       PRES   REMARKS
ELKHART        LGT RAIN  46  39  76 E12G18    29.79R
GOSHEN         LGT RAIN  46  41  82 E14       29.77F
6HR MIN TEMP:  42; 6HR MAX TEMP:  47; 6HR PCP:  0.09;

LOGANSPORT +   LGT RAIN  43  41  93 E18G29    29.71R
PERU/GRISSOM   LGT RAIN  44  42  91 E15G21    29.70F
6HR MIN TEMP:  43; 6HR MAX TEMP:  45; 6HR PCP:  0.77;

ROCHESTER +    LGT RAIN  46  45  93 E17G24    29.72F
SOUTH BEND     LGT RAIN  47  44  90 E12       29.79R
6HR MIN TEMP:  44; 6HR MAX TEMP:  48; 6HR PCP:  0.09;

WARSAW +       LGT RAIN  43  41  93 SE12      29.77R

$$

INZ006>009-017-018-025>027-251900-
NORTHEAST INDIANA

CITY           SKY/WX    TMP DP  RH WIND       PRES   REMARKS
ANGOLA *+      PTSUNNY   45  39  81 E12       29.78F
AUBURN +       RAIN      45  39  81 E14       29.80S
FORT WAYNE     RAIN      44  41  89 E14       29.77S FOG
6HR MIN TEMP:  42; 6HR MAX TEMP:  46; 6HR PCP:  0.17;

HUNTINGTON +   LGT RAIN  44  40  86 E6        29.77S
6HR MIN TEMP:  40; 6HR MAX TEMP:  46; 6HR PCP:  0.17;


$$

INZ028-029-035-036-043>045-051>053-251900-
WEST CENTRAL INDIANA

CITY           SKY/WX    TMP DP  RH WIND       PRES   REMARKS
CRAWFORDSVL +  LGT SNOW  44  40  86 E13       29.62F
6HR MIN TEMP:  44; 6HR MAX TEMP:  47; 6HR PCP:  0.49;

GREENCASTLE +  CLOUDY    46  43  87 E12       29.63F
LAFAYETTE      RAIN      45  43  93 NE17      29.67F FOG
6HR MIN TEMP:  44; 6HR MAX TEMP:  48; 6HR PCP:  0.36;

TERRE HAUTE    LGT RAIN  51  49  92 E13       29.60S FOG
6HR MIN TEMP:  50; 6HR MAX TEMP:  51; 6HR PCP:  0.25;


$$

INZ030>032-037>040-046>048-054>057-064-065-251900-
CENTRAL INDIANA

CITY           SKY/WX    TMP DP  RH WIND       PRES   REMARKS
ANDERSON       LGT RAIN  41  39  93 E12G20    29.71F
CP ATTERBURY + CLOUDY    48  46  93 E12       29.63F
FRANKFORT +    CLOUDY    45  45 100 NE15      29.70R
6HR MIN TEMP:  45; 6HR MAX TEMP:  48; 6HR PCP:  0.56;

GREENWOOD *+   CLOUDY    46  43  87 NE10      29.67R
INDIANAPOLIS   TSTM      46  43  89 E21G28    29.63F FOG
6HR MIN TEMP:  46; 6HR MAX TEMP:  50; 6HR PCP:  0.36;

-EAGLE CREEK   HVY RAIN  45  43  93 E12G20    29.67F FOG
6HR MIN TEMP:  45; 6HR MAX TEMP:  50; 6HR PCP:  0.38;

KOKOMO *+      CLOUDY    45  39  81 E20G26    29.68F
6HR MIN TEMP:  43; 6HR MAX TEMP:  46; 6HR PCP:  0.63;

MARION +       RAIN      43  39  86 E12       29.73F
MT COMFORT *+  CLOUDY    45 N/A N/A NE10      29.71R
SHELBYVILLE    HVY RAIN  48  44  86 NE13      29.66R FOG
6HR MIN TEMP:  48; 6HR MAX TEMP:  51; 6HR PCP:  0.37;

ZIONSVILLE +   RAIN      45  41  86 E15       29.67F
6HR MIN TEMP:  45; 6HR MAX TEMP:  48; 6HR PCP:  0.32;


$$

INZ033-034-041-042-049-050-058-059-251900-
EAST CENTRAL INDIANA

CITY           SKY/WX    TMP DP  RH WIND       PRES   REMARKS
MUNCIE         LGT RAIN  43  40  89 E20       29.70F FOG
6HR MIN TEMP:  43; 6HR MAX TEMP:  47; 6HR PCP:  0.31;


$$

INZ060-061-067>069-081>083-085>088-251900-
SOUTHWEST INDIANA

CITY           SKY/WX    TMP DP  RH WIND       PRES   REMARKS
EVANSVILLE     CLOUDY    66  59  78 SW7       29.53F
6HR MIN TEMP:  53; 6HR MAX TEMP:  67; 6HR PCP:  0.01;

HUNTINGBURG *+ CLOUDY    57  55  94 E3        29.55F
6HR MIN TEMP:  50; 6HR MAX TEMP:  57; 6HR PCP:  0.06;

WASHINGTON +   CLOUDY    54  50  87 SE8       29.55F FOG
6HR MIN TEMP:  50; 6HR MAX TEMP:  54; 6HR PCP:  0.11;


$$

INZ062-063-066-070>080-084-089>092-251900-
SOUTH CENTRAL AND SOUTHEAST INDIANA

CITY           SKY/WX    TMP DP  RH WIND       PRES   REMARKS
BEDFORD +      DRIZZLE   52  50  93 E7        29.58F
BLOOMINGTON    CLOUDY    50  49  96 E7        29.59F FOG
6HR MIN TEMP:  49; 6HR MAX TEMP:  51; 6HR PCP:  0.09;

MADISON *+     CLOUDY    50  46  87 E9        29.61F
NORTH VERNON + RAIN      50  50 100 E9G16     29.62F
SEYMOUR +      CLOUDY    52  52 100 E8        29.60F FOG

$$



USA.gov is the U.S. government's official web portal to all federal, state and local government web resources and services.